Time,TemperatureF,DewpointF,PressureIn,WindDirection,WindDirectionDegrees,WindSpeedMPH,WindSpeedGustMPH,Humidity,HourlyPrecipIn,Conditions,Clouds,dailyrainin,SoftwareType,DateUTC
2015-02-28 00:04:00,45.1,39.9,29.65,WNW,292,0.0,1.0,82,0.00,,,0.00,meteobridge,2015-02-28 08:04:00,
2015-02-28 00:09:00,45.1,39.9,29.65,WNW,291,0.0,0.0,82,0.00,,,0.00,meteobridge,2015-02-28 08:09:00,
2015-02-28 00:14:00,45.1,39.9,29.65,WNW,291,0.0,0.0,82,0.00,,,0.00,meteobridge,2015-02-28 08:14:00,
2015-02-28 00:19:00,45.1,39.9,29.65,WNW,292,0.0,0.0,82,0.00,,,0.00,meteobridge,2015-02-28 08:19:00,
2015-02-28 00:24:00,45.0,39.7,29.65,WNW,292,0.0,0.0,82,0.00,,,0.00,meteobridge,2015-02-28 08:24:00,
2015-02-28 00:29:00,44.8,39.6,29.65,WNW,291,0.0,0.0,82,0.00,,,0.00,meteobridge,2015-02-28 08:29:00,
2015-02-28 00:34:00,44.4,39.6,29.65,WNW,292,0.0,0.0,83,0.00,,,0.00,meteobridge,2015-02-28 08:34:00,
2015-02-28 00:39:00,44.4,39.6,29.65,WNW,292,0.0,1.0,83,0.00,,,0.00,meteobridge,2015-02-28 08:39:00,
2015-02-28 00:44:00,44.2,39.4,29.65,WNW,292,0.0,0.0,83,0.00,,,0.00,meteobridge,2015-02-28 08:44:00,
2015-02-28 00:50:00,44.1,39.2,29.65,WNW,291,0.0,0.0,83,0.00,,,0.00,meteobridge,2015-02-28 08:50:00,
2015-02-28 00:55:00,44.1,39.2,29.65,WNW,291,0.0,0.0,83,0.00,,,0.00,meteobridge,2015-02-28 08:55:00,
2015-02-28 01:00:00,43.7,38.8,29.65,WNW,291,0.0,0.0,83,0.00,,,0.00,meteobridge,2015-02-28 09:00:00,
2015-02-28 01:05:00,43.5,39.0,29.65,WNW,291,0.0,0.0,84,0.00,,,0.00,meteobridge,2015-02-28 09:05:00,
2015-02-28 01:10:00,43.3,39.2,29.66,WNW,291,0.0,0.0,85,0.00,,,0.00,meteobridge,2015-02-28 09:10:00,
2015-02-28 01:15:00,43.2,39.0,29.66,WNW,292,0.0,0.0,85,0.00,,,0.00,meteobridge,2015-02-28 09:15:00,
2015-02-28 01:20:00,43.0,38.8,29.66,WNW,292,0.0,0.0,85,0.00,,,0.00,meteobridge,2015-02-28 09:20:00,
2015-02-28 01:25:00,43.0,39.0,29.66,WNW,291,0.0,0.0,86,0.00,,,0.00,meteobridge,2015-02-28 09:25:00,
2015-02-28 01:30:00,43.0,38.8,29.66,WNW,291,0.0,1.0,85,0.00,,,0.00,meteobridge,2015-02-28 09:30:00,
2015-02-28 01:35:00,42.6,38.5,29.66,WNW,292,0.0,0.0,85,0.00,,,0.00,meteobridge,2015-02-28 09:35:00,
2015-02-28 01:40:00,42.4,38.3,29.65,WNW,291,0.0,0.0,85,0.00,,,0.00,meteobridge,2015-02-28 09:40:00,
2015-02-28 01:45:00,42.1,38.1,29.65,WNW,291,0.0,0.0,86,0.00,,,0.00,meteobridge,2015-02-28 09:45:00,
2015-02-28 01:51:00,41.9,37.9,29.65,WNW,291,0.0,0.0,86,0.00,,,0.00,meteobridge,2015-02-28 09:51:00,
2015-02-28 01:56:00,41.7,37.8,29.65,WNW,292,0.0,0.0,86,0.00,,,0.00,meteobridge,2015-02-28 09:56:00,
2015-02-28 02:01:00,41.5,37.9,29.65,WNW,292,0.0,0.0,87,0.00,,,0.00,meteobridge,2015-02-28 10:01:00,
2015-02-28 02:06:00,41.4,37.8,29.65,WNW,291,0.0,0.0,87,0.00,,,0.00,meteobridge,2015-02-28 10:06:00,
2015-02-28 02:11:00,41.2,37.6,29.66,WNW,291,0.0,0.0,87,0.00,,,0.00,meteobridge,2015-02-28 10:11:00,
2015-02-28 02:16:00,41.2,37.9,29.66,WNW,292,0.0,0.0,88,0.00,,,0.00,meteobridge,2015-02-28 10:16:00,
2015-02-28 02:21:00,41.0,37.8,29.66,WNW,292,0.0,0.0,88,0.00,,,0.00,meteobridge,2015-02-28 10:21:00,
2015-02-28 02:26:00,40.8,37.6,29.65,WNW,291,0.0,0.0,88,0.00,,,0.00,meteobridge,2015-02-28 10:26:00,
2015-02-28 02:31:00,40.8,37.6,29.65,WNW,291,0.0,0.0,88,0.00,,,0.00,meteobridge,2015-02-28 10:31:00,
2015-02-28 02:36:00,40.6,37.4,29.65,WNW,292,0.0,0.0,88,0.00,,,0.00,meteobridge,2015-02-28 10:36:00,
2015-02-28 02:41:00,40.5,37.2,29.65,WNW,291,0.0,0.0,88,0.00,,,0.00,meteobridge,2015-02-28 10:41:00,
2015-02-28 02:46:00,40.3,37.0,29.65,WNW,291,0.0,0.0,88,0.00,,,0.00,meteobridge,2015-02-28 10:46:00,
2015-02-28 02:51:00,40.1,36.9,29.65,WNW,292,0.0,0.0,88,0.00,,,0.00,meteobridge,2015-02-28 10:51:00,
2015-02-28 02:57:00,39.9,36.9,29.65,WNW,291,0.0,0.0,89,0.00,,,0.00,meteobridge,2015-02-28 10:57:00,
2015-02-28 03:02:00,39.9,36.9,29.65,WNW,292,0.0,0.0,89,0.00,,,0.00,meteobridge,2015-02-28 11:02:00,
2015-02-28 03:07:00,39.7,36.7,29.65,WNW,291,0.0,0.0,89,0.00,,,0.00,meteobridge,2015-02-28 11:07:00,
2015-02-28 03:12:00,39.7,36.7,29.65,WNW,291,0.0,0.0,89,0.00,,,0.00,meteobridge,2015-02-28 11:12:00,
2015-02-28 03:17:00,39.7,36.7,29.65,WNW,292,0.0,0.0,89,0.00,,,0.00,meteobridge,2015-02-28 11:17:00,
2015-02-28 03:22:00,39.7,36.7,29.65,WNW,291,0.0,0.0,89,0.00,,,0.00,meteobridge,2015-02-28 11:22:00,
2015-02-28 03:27:00,39.6,36.9,29.65,WNW,291,0.0,0.0,90,0.00,,,0.00,meteobridge,2015-02-28 11:27:00,
2015-02-28 03:32:00,39.6,36.9,29.65,WNW,291,0.0,0.0,90,0.00,,,0.00,meteobridge,2015-02-28 11:32:00,
2015-02-28 03:37:00,39.6,36.9,29.65,WNW,292,0.0,0.0,90,0.00,,,0.00,meteobridge,2015-02-28 11:37:00,
2015-02-28 03:42:00,39.4,36.5,29.65,WNW,292,0.0,0.0,89,0.00,,,0.00,meteobridge,2015-02-28 11:42:00,
2015-02-28 03:47:00,39.4,36.7,29.65,WNW,292,0.0,0.0,90,0.00,,,0.00,meteobridge,2015-02-28 11:47:00,
2015-02-28 03:52:00,39.2,36.5,29.65,WNW,291,0.0,0.0,90,0.00,,,0.00,meteobridge,2015-02-28 11:52:00,
2015-02-28 03:58:00,39.0,36.3,29.65,WNW,292,0.0,0.0,90,0.00,,,0.00,meteobridge,2015-02-28 11:58:00,
2015-02-28 04:03:00,39.0,36.3,29.65,WNW,292,0.0,0.0,90,0.00,,,0.00,meteobridge,2015-02-28 12:03:00,
2015-02-28 04:08:00,38.8,36.1,29.65,WNW,292,0.0,0.0,90,0.00,,,0.00,meteobridge,2015-02-28 12:08:00,
2015-02-28 04:13:00,38.8,36.1,29.65,WNW,292,0.0,0.0,90,0.00,,,0.00,meteobridge,2015-02-28 12:13:00,
2015-02-28 04:18:00,38.8,36.5,29.65,WNW,291,0.0,0.0,91,0.00,,,0.00,meteobridge,2015-02-28 12:18:00,
2015-02-28 04:23:00,38.7,36.0,29.65,WNW,291,0.0,0.0,90,0.00,,,0.00,meteobridge,2015-02-28 12:23:00,
2015-02-28 04:28:00,38.7,36.3,29.65,WNW,292,0.0,0.0,91,0.00,,,0.00,meteobridge,2015-02-28 12:28:00,
2015-02-28 04:33:00,38.5,36.1,29.65,WNW,291,0.0,0.0,91,0.00,,,0.00,meteobridge,2015-02-28 12:33:00,
2015-02-28 04:39:00,38.5,35.8,29.65,WNW,291,0.0,0.0,90,0.00,,,0.00,meteobridge,2015-02-28 12:39:00,
2015-02-28 04:44:00,38.3,36.0,29.65,WNW,292,0.0,0.0,91,0.00,,,0.00,meteobridge,2015-02-28 12:44:00,
2015-02-28 04:49:00,38.3,36.0,29.65,WNW,291,0.0,0.0,91,0.00,,,0.00,meteobridge,2015-02-28 12:49:00,
2015-02-28 04:54:00,38.1,35.8,29.65,WNW,292,0.0,0.0,91,0.00,,,0.00,meteobridge,2015-02-28 12:54:00,
2015-02-28 04:59:00,38.1,35.8,29.65,WNW,291,0.0,0.0,91,0.00,,,0.00,meteobridge,2015-02-28 12:59:00,
2015-02-28 05:04:00,38.1,35.8,29.65,WNW,291,0.0,0.0,91,0.00,,,0.00,meteobridge,2015-02-28 13:04:00,
2015-02-28 05:09:00,38.1,35.8,29.65,WNW,292,0.0,0.0,91,0.00,,,0.00,meteobridge,2015-02-28 13:09:00,
2015-02-28 05:14:00,38.1,35.8,29.65,WNW,292,0.0,0.0,91,0.00,,,0.00,meteobridge,2015-02-28 13:14:00,
2015-02-28 05:19:00,38.1,35.8,29.65,WNW,291,0.0,0.0,91,0.00,,,0.00,meteobridge,2015-02-28 13:19:00,
2015-02-28 05:24:00,37.9,35.6,29.65,WNW,291,0.0,0.0,91,0.00,,,0.00,meteobridge,2015-02-28 13:24:00,
2015-02-28 05:29:00,37.9,35.6,29.65,WNW,292,0.0,0.0,91,0.00,,,0.00,meteobridge,2015-02-28 13:29:00,
2015-02-28 05:34:00,37.9,35.6,29.65,WNW,292,0.0,0.0,91,0.00,,,0.00,meteobridge,2015-02-28 13:34:00,
2015-02-28 05:39:00,37.9,35.6,29.65,WNW,292,0.0,0.0,91,0.00,,,0.00,meteobridge,2015-02-28 13:39:00,
2015-02-28 05:44:00,37.9,35.6,29.66,WNW,292,0.0,0.0,91,0.00,,,0.00,meteobridge,2015-02-28 13:44:00,
2015-02-28 05:50:00,38.1,35.8,29.66,WNW,292,0.0,0.0,91,0.00,,,0.00,meteobridge,2015-02-28 13:50:00,
2015-02-28 05:54:00,38.3,36.0,29.66,WNW,292,0.0,0.0,91,0.00,,,0.00,meteobridge,2015-02-28 13:54:00,
2015-02-28 06:00:00,38.5,36.1,29.66,WNW,292,0.0,0.0,91,0.00,,,0.00,meteobridge,2015-02-28 14:00:00,
2015-02-28 06:05:00,38.5,36.1,29.66,WNW,292,0.0,0.0,91,0.00,,,0.00,meteobridge,2015-02-28 14:05:00,
2015-02-28 06:10:00,38.3,35.6,29.67,WNW,291,0.0,0.0,90,0.00,,,0.00,meteobridge,2015-02-28 14:10:00,
2015-02-28 06:15:00,38.1,35.4,29.67,WNW,292,0.0,0.0,90,0.00,,,0.00,meteobridge,2015-02-28 14:15:00,
2015-02-28 06:20:00,37.9,35.2,29.67,WNW,291,0.0,0.0,90,0.00,,,0.00,meteobridge,2015-02-28 14:20:00,
2015-02-28 06:25:00,37.9,35.2,29.67,WNW,291,0.0,1.0,90,0.00,,,0.00,meteobridge,2015-02-28 14:25:00,
2015-02-28 06:30:00,37.9,35.6,29.67,WNW,292,0.0,0.0,91,0.00,,,0.00,meteobridge,2015-02-28 14:30:00,
2015-02-28 06:35:00,37.9,35.6,29.67,WNW,292,0.0,0.0,91,0.00,,,0.00,meteobridge,2015-02-28 14:35:00,
2015-02-28 06:40:00,38.1,35.8,29.67,WNW,291,0.0,0.0,91,0.00,,,0.00,meteobridge,2015-02-28 14:40:00,
2015-02-28 06:45:00,38.1,36.0,29.67,WNW,291,0.0,0.0,92,0.00,,,0.00,meteobridge,2015-02-28 14:45:00,
2015-02-28 06:50:00,38.1,35.8,29.67,WNW,292,0.0,0.0,91,0.00,,,0.00,meteobridge,2015-02-28 14:50:00,
2015-02-28 06:55:00,38.1,35.8,29.67,WNW,292,0.0,0.0,91,0.00,,,0.00,meteobridge,2015-02-28 14:55:00,
2015-02-28 07:00:00,37.9,35.6,29.67,WNW,291,0.0,0.0,91,0.00,,,0.00,meteobridge,2015-02-28 15:00:00,
2015-02-28 07:05:00,37.9,35.6,29.67,WNW,292,0.0,0.0,91,0.00,,,0.00,meteobridge,2015-02-28 15:05:00,
2015-02-28 07:11:00,37.8,35.4,29.69,WNW,291,0.0,0.0,91,0.00,,,0.00,meteobridge,2015-02-28 15:11:00,
2015-02-28 07:16:00,37.8,35.4,29.69,WNW,292,0.0,0.0,91,0.00,,,0.00,meteobridge,2015-02-28 15:16:00,
2015-02-28 07:21:00,37.9,35.8,29.69,WNW,292,0.0,0.0,92,0.00,,,0.00,meteobridge,2015-02-28 15:21:00,
2015-02-28 07:26:00,38.1,36.0,29.70,WNW,292,0.0,0.0,92,0.00,,,0.00,meteobridge,2015-02-28 15:26:00,
2015-02-28 07:31:00,38.5,36.3,29.70,WNW,292,0.0,0.0,92,0.00,,,0.00,meteobridge,2015-02-28 15:31:00,
2015-02-28 07:36:00,38.8,37.0,29.70,WNW,291,0.0,0.0,93,0.00,,,0.00,meteobridge,2015-02-28 15:36:00,
2015-02-28 07:41:00,39.0,36.9,29.70,WNW,292,0.0,0.0,92,0.00,,,0.00,meteobridge,2015-02-28 15:41:00,
2015-02-28 07:46:00,39.4,37.6,29.70,WNW,292,0.0,0.0,93,0.00,,,0.00,meteobridge,2015-02-28 15:46:00,
2015-02-28 07:51:00,39.7,37.9,29.70,WNW,292,0.0,0.0,93,0.00,,,0.00,meteobridge,2015-02-28 15:51:00,
2015-02-28 07:57:00,40.1,37.9,29.70,WNW,292,0.0,0.0,92,0.00,,,0.00,meteobridge,2015-02-28 15:57:00,
2015-02-28 08:02:00,40.5,38.3,29.70,WNW,292,0.0,0.0,92,0.00,,,0.00,meteobridge,2015-02-28 16:02:00,
2015-02-28 08:07:00,41.2,38.8,29.70,WNW,292,0.0,0.0,91,0.00,,,0.00,meteobridge,2015-02-28 16:07:00,
2015-02-28 08:12:00,41.5,39.2,29.70,WNW,292,0.0,0.0,91,0.00,,,0.00,meteobridge,2015-02-28 16:12:00,
2015-02-28 08:17:00,41.9,39.2,29.70,WNW,291,0.0,0.0,90,0.00,,,0.00,meteobridge,2015-02-28 16:17:00,
2015-02-28 08:22:00,42.3,39.2,29.70,WNW,292,0.0,0.0,89,0.00,,,0.00,meteobridge,2015-02-28 16:22:00,
2015-02-28 08:27:00,42.3,39.2,29.71,WNW,292,0.0,0.0,89,0.00,,,0.00,meteobridge,2015-02-28 16:27:00,
2015-02-28 08:32:00,42.4,39.4,29.71,WNW,291,0.0,0.0,89,0.00,,,0.00,meteobridge,2015-02-28 16:32:00,
2015-02-28 08:37:00,42.8,39.7,29.71,WNW,292,0.0,0.0,89,0.00,,,0.00,meteobridge,2015-02-28 16:37:00,
2015-02-28 08:42:00,43.3,40.3,29.71,WNW,291,0.0,0.0,89,0.00,,,0.00,meteobridge,2015-02-28 16:42:00,
2015-02-28 08:47:00,44.2,40.6,29.71,WNW,292,0.0,0.0,87,0.00,,,0.00,meteobridge,2015-02-28 16:47:00,
2015-02-28 08:52:00,45.1,41.5,29.71,WNW,292,0.0,0.0,87,0.00,,,0.00,meteobridge,2015-02-28 16:52:00,
2015-02-28 08:57:00,46.2,42.3,29.71,WNW,292,0.0,0.0,86,0.00,,,0.00,meteobridge,2015-02-28 16:57:00,
2015-02-28 09:02:00,47.1,42.3,29.71,WNW,292,0.0,1.0,83,0.00,,,0.00,meteobridge,2015-02-28 17:02:00,
2015-02-28 09:07:00,47.7,42.1,29.71,WNW,292,0.0,0.0,81,0.00,,,0.00,meteobridge,2015-02-28 17:07:00,
2015-02-28 09:12:00,48.6,42.3,29.71,WNW,291,0.9,2.0,79,0.00,,,0.00,meteobridge,2015-02-28 17:12:00,
2015-02-28 09:18:00,49.1,42.3,29.71,NW,309,0.0,4.0,77,0.00,,,0.00,meteobridge,2015-02-28 17:18:00,
2015-02-28 09:23:00,49.5,42.3,29.71,NW,321,0.9,5.0,76,0.00,,,0.00,meteobridge,2015-02-28 17:23:00,
2015-02-28 09:28:00,49.8,41.9,29.70,NW,322,0.9,3.0,74,0.00,,,0.00,meteobridge,2015-02-28 17:28:00,
2015-02-28 09:33:00,50.4,42.8,29.70,NW,319,0.0,2.0,75,0.00,,,0.00,meteobridge,2015-02-28 17:33:00,
2015-02-28 09:38:00,50.7,42.8,29.70,NW,310,2.0,2.0,74,0.00,,,0.00,meteobridge,2015-02-28 17:38:00,
2015-02-28 09:43:00,51.3,43.0,29.71,WNW,301,0.0,4.0,73,0.00,,,0.00,meteobridge,2015-02-28 17:43:00,
2015-02-28 09:48:00,52.0,42.4,29.71,NW,315,4.0,4.0,70,0.00,,,0.00,meteobridge,2015-02-28 17:48:00,
2015-02-28 09:53:00,52.3,42.8,29.71,NW,315,0.9,2.0,70,0.00,,,0.00,meteobridge,2015-02-28 17:53:00,
2015-02-28 09:58:00,52.9,43.0,29.70,NW,314,0.9,1.0,69,0.00,,,0.00,meteobridge,2015-02-28 17:58:00,
2015-02-28 10:03:00,53.1,41.2,29.70,WNW,287,0.0,3.0,64,0.00,,,0.00,meteobridge,2015-02-28 18:03:00,
2015-02-28 10:08:00,53.4,41.9,29.70,WNW,287,0.0,2.0,65,0.00,,,0.00,meteobridge,2015-02-28 18:08:00,
2015-02-28 10:13:00,53.6,42.1,29.71,WNW,289,0.0,1.0,65,0.00,,,0.00,meteobridge,2015-02-28 18:13:00,
2015-02-28 10:19:00,54.3,42.8,29.71,WNW,286,0.0,1.0,65,0.00,,,0.00,meteobridge,2015-02-28 18:19:00,
2015-02-28 10:24:00,55.0,42.6,29.71,West,271,0.0,1.0,63,0.00,,,0.00,meteobridge,2015-02-28 18:24:00,
2015-02-28 10:29:00,55.6,43.5,29.71,SSW,203,0.9,3.0,64,0.00,,,0.00,meteobridge,2015-02-28 18:29:00,
2015-02-28 10:34:00,56.1,43.3,29.71,South,190,0.0,1.0,62,0.00,,,0.00,meteobridge,2015-02-28 18:34:00,
2015-02-28 10:39:00,57.0,43.3,29.71,South,186,0.9,2.0,60,0.00,,,0.00,meteobridge,2015-02-28 18:39:00,
2015-02-28 10:44:00,57.0,42.8,29.71,SSW,192,0.0,3.0,59,0.00,,,0.00,meteobridge,2015-02-28 18:44:00,
2015-02-28 10:49:00,57.4,43.7,29.71,SSW,192,0.0,1.0,60,0.00,,,0.00,meteobridge,2015-02-28 18:49:00,
2015-02-28 10:54:00,57.7,43.0,29.71,WSW,237,2.9,4.0,58,0.00,,,0.00,meteobridge,2015-02-28 18:54:00,
2015-02-28 11:00:00,57.9,43.2,29.71,SW,234,0.0,0.0,58,0.00,,,0.00,meteobridge,2015-02-28 19:00:00,
2015-02-28 11:10:00,58.8,43.2,29.71,West,263,0.9,4.0,56,0.00,,,0.00,meteobridge,2015-02-28 19:10:00,
2015-02-28 11:30:00,60.1,43.0,29.71,SSE,150,0.0,1.0,53,0.00,,,0.00,meteobridge,2015-02-28 19:30:00,
2015-02-28 11:43:00,59.0,41.9,29.71,WSW,253,2.9,4.0,53,0.00,,,0.00,meteobridge,2015-02-28 19:43:00,
2015-02-28 11:47:00,58.5,41.4,29.71,West,260,0.9,2.0,53,0.00,,,0.00,meteobridge,2015-02-28 19:47:00,
2015-02-28 11:53:00,58.3,42.3,29.71,West,276,0.0,1.0,55,0.00,,,0.00,meteobridge,2015-02-28 19:53:00,
2015-02-28 11:58:00,58.3,42.3,29.71,West,276,0.0,1.0,55,0.00,,,0.00,meteobridge,2015-02-28 19:58:00,
2015-02-28 12:03:00,58.5,42.4,29.71,West,273,0.9,3.0,55,0.00,,,0.00,meteobridge,2015-02-28 20:03:00,
2015-02-28 12:08:00,58.5,42.4,29.71,West,275,0.0,1.0,55,0.00,,,0.00,meteobridge,2015-02-28 20:08:00,
2015-02-28 12:13:00,58.5,42.4,29.71,WSW,237,0.0,5.0,55,0.00,,,0.00,meteobridge,2015-02-28 20:13:00,
2015-02-28 12:18:00,58.5,42.8,29.71,WSW,241,0.0,2.0,56,0.00,,,0.00,meteobridge,2015-02-28 20:18:00,
2015-02-28 12:24:00,58.6,42.4,29.71,West,263,0.0,5.0,55,0.00,,,0.00,meteobridge,2015-02-28 20:24:00,
2015-02-28 12:29:00,58.5,42.4,29.71,NE,47,10.1,12.0,55,0.00,,,0.00,meteobridge,2015-02-28 20:29:00,
2015-02-28 12:34:00,55.8,43.7,29.71,East,82,0.0,7.0,64,0.02,,,0.02,meteobridge,2015-02-28 20:34:00,
2015-02-28 12:39:00,54.7,44.2,29.71,ENE,78,2.0,3.0,68,0.02,,,0.02,meteobridge,2015-02-28 20:39:00,
2015-02-28 12:44:00,54.0,45.9,29.71,ENE,78,0.0,0.0,74,0.02,,,0.02,meteobridge,2015-02-28 20:44:00,
2015-02-28 12:49:00,53.4,45.7,29.71,ENE,78,0.9,3.0,75,0.02,,,0.02,meteobridge,2015-02-28 20:49:00,
2015-02-28 12:55:00,53.1,46.0,29.71,ENE,78,0.0,0.0,77,0.02,,,0.02,meteobridge,2015-02-28 20:55:00,
2015-02-28 13:00:00,52.5,46.2,29.71,ENE,78,2.0,3.0,79,0.02,,,0.02,meteobridge,2015-02-28 21:00:00,
2015-02-28 13:05:00,52.5,45.9,29.71,East,83,0.0,1.0,78,0.02,,,0.02,meteobridge,2015-02-28 21:05:00,
2015-02-28 13:10:00,52.7,46.8,29.72,East,83,0.9,3.0,80,0.02,,,0.02,meteobridge,2015-02-28 21:10:00,
2015-02-28 13:15:00,52.9,47.3,29.72,East,84,0.0,1.0,81,0.02,,,0.02,meteobridge,2015-02-28 21:15:00,
2015-02-28 13:20:00,53.1,47.1,29.72,East,84,0.0,1.0,80,0.02,,,0.02,meteobridge,2015-02-28 21:20:00,
2015-02-28 13:25:00,53.1,47.1,29.71,East,86,0.0,3.0,80,0.02,,,0.02,meteobridge,2015-02-28 21:25:00,
2015-02-28 13:30:00,53.2,47.3,29.71,East,86,0.9,1.0,80,0.01,,,0.02,meteobridge,2015-02-28 21:30:00,
2015-02-28 13:35:00,53.2,47.5,29.71,East,86,2.0,2.0,81,0.00,,,0.02,meteobridge,2015-02-28 21:35:00,
2015-02-28 13:41:00,53.2,47.3,29.71,East,88,0.0,2.0,80,0.00,,,0.02,meteobridge,2015-02-28 21:41:00,
2015-02-28 13:46:00,53.4,47.5,29.71,East,88,0.9,2.0,80,0.00,,,0.02,meteobridge,2015-02-28 21:46:00,
2015-02-28 13:51:00,53.4,47.1,29.71,East,88,0.0,2.0,79,0.00,,,0.02,meteobridge,2015-02-28 21:51:00,
2015-02-28 13:56:00,53.8,47.5,29.71,East,89,0.0,2.0,79,0.00,,,0.02,meteobridge,2015-02-28 21:56:00,
2015-02-28 14:01:00,54.0,48.0,29.71,SE,132,0.0,3.0,80,0.00,,,0.02,meteobridge,2015-02-28 22:01:00,
2015-02-28 14:06:00,54.1,48.0,29.71,SSE,167,0.9,1.0,80,0.00,,,0.02,meteobridge,2015-02-28 22:06:00,
2015-02-28 14:11:00,54.3,47.7,29.71,South,169,0.0,1.0,78,0.00,,,0.02,meteobridge,2015-02-28 22:11:00,
2015-02-28 14:17:00,54.3,47.3,29.71,SSE,166,0.0,1.0,77,0.00,,,0.02,meteobridge,2015-02-28 22:17:00,
2015-02-28 14:22:00,54.7,48.0,29.71,SSE,165,0.0,1.0,78,0.00,,,0.02,meteobridge,2015-02-28 22:22:00,
2015-02-28 14:27:00,55.0,48.0,29.70,SE,126,2.0,4.0,77,0.00,,,0.02,meteobridge,2015-02-28 22:27:00,
2015-02-28 14:32:00,55.0,47.7,29.70,SSE,158,0.0,3.0,76,0.00,,,0.02,meteobridge,2015-02-28 22:32:00,
2015-02-28 14:37:00,55.6,47.8,29.70,SE,124,2.0,5.0,75,0.00,,,0.02,meteobridge,2015-02-28 22:37:00,
2015-02-28 14:42:00,55.8,48.0,29.71,SE,140,0.9,4.0,75,0.00,,,0.02,meteobridge,2015-02-28 22:42:00,
2015-02-28 14:47:00,56.1,48.0,29.71,SSE,163,0.9,3.0,74,0.00,,,0.02,meteobridge,2015-02-28 22:47:00,
2015-02-28 14:52:00,56.8,47.1,29.71,SE,146,0.9,7.0,70,0.00,,,0.02,meteobridge,2015-02-28 22:52:00,
2015-02-28 14:57:00,56.8,47.1,29.71,South,169,2.0,4.0,70,0.00,,,0.02,meteobridge,2015-02-28 22:57:00,
2015-02-28 15:02:00,56.8,47.1,29.71,SSW,207,2.9,3.0,70,0.00,,,0.02,meteobridge,2015-02-28 23:02:00,
2015-02-28 15:07:00,56.8,46.8,29.71,SSW,207,0.0,1.0,69,0.00,,,0.02,meteobridge,2015-02-28 23:07:00,
2015-02-28 15:12:00,56.7,46.2,29.72,SSW,207,0.0,1.0,68,0.00,,,0.02,meteobridge,2015-02-28 23:12:00,
2015-02-28 15:18:00,57.6,46.8,29.72,SSW,206,0.9,2.0,67,0.00,,,0.02,meteobridge,2015-02-28 23:18:00,
2015-02-28 15:23:00,58.5,45.9,29.72,SSW,202,0.0,3.0,63,0.00,,,0.02,meteobridge,2015-02-28 23:23:00,
2015-02-28 15:28:00,59.2,46.2,29.72,SSE,167,0.0,1.0,62,0.00,,,0.02,meteobridge,2015-02-28 23:28:00,
2015-02-28 15:33:00,58.8,45.0,29.72,SSW,194,0.0,1.0,60,0.00,,,0.02,meteobridge,2015-02-28 23:33:00,
2015-02-28 15:38:00,58.8,45.0,29.72,SW,227,2.0,3.0,60,0.00,,,0.02,meteobridge,2015-02-28 23:38:00,
2015-02-28 15:43:00,59.4,45.0,29.72,SW,225,0.0,1.0,59,0.00,,,0.02,meteobridge,2015-02-28 23:43:00,
2015-02-28 15:48:00,59.9,44.2,29.72,SW,226,0.9,3.0,56,0.00,,,0.02,meteobridge,2015-02-28 23:48:00,
2015-02-28 15:53:00,60.1,44.4,29.72,SSW,210,0.9,1.0,56,0.00,,,0.02,meteobridge,2015-02-28 23:53:00,
2015-02-28 15:59:00,60.3,45.0,29.72,SSW,207,0.9,1.0,57,0.00,,,0.02,meteobridge,2015-02-28 23:59:00,
2015-02-28 16:04:00,60.1,44.8,29.72,SSE,153,0.0,2.0,57,0.00,,,0.02,meteobridge,2015-03-01 00:04:00,
2015-02-28 16:09:00,59.9,44.6,29.72,SE,141,0.0,2.0,57,0.00,,,0.02,meteobridge,2015-03-01 00:09:00,
2015-02-28 16:14:00,59.7,44.1,29.72,NE,56,0.9,4.0,56,0.00,,,0.02,meteobridge,2015-03-01 00:14:00,
2015-02-28 16:19:00,59.7,44.4,29.72,NE,56,0.0,2.0,57,0.00,,,0.02,meteobridge,2015-03-01 00:19:00,
2015-02-28 16:24:00,59.5,44.8,29.72,ENE,65,0.9,2.0,58,0.00,,,0.02,meteobridge,2015-03-01 00:24:00,
2015-02-28 16:29:00,59.5,44.8,29.72,ENE,68,0.0,2.0,58,0.00,,,0.02,meteobridge,2015-03-01 00:29:00,
2015-02-28 16:35:00,59.9,44.6,29.72,South,181,2.0,3.0,57,0.00,,,0.02,meteobridge,2015-03-01 00:35:00,
2015-02-28 16:40:00,60.1,44.8,29.73,South,182,0.0,1.0,57,0.00,,,0.02,meteobridge,2015-03-01 00:40:00,
2015-02-28 16:45:00,60.4,45.1,29.73,South,182,0.9,1.0,57,0.00,,,0.02,meteobridge,2015-03-01 00:45:00,
2015-02-28 16:50:00,61.2,44.8,29.73,South,182,0.0,1.0,55,0.00,,,0.02,meteobridge,2015-03-01 00:50:00,
2015-02-28 16:55:00,61.3,44.6,29.73,South,182,0.0,0.0,54,0.00,,,0.02,meteobridge,2015-03-01 00:55:00,
2015-02-28 17:00:00,62.2,45.0,29.73,South,182,0.0,1.0,53,0.00,,,0.02,meteobridge,2015-03-01 01:00:00,
2015-02-28 17:05:00,62.2,45.0,29.73,SW,224,0.0,2.0,53,0.00,,,0.02,meteobridge,2015-03-01 01:05:00,
2015-02-28 17:11:00,61.5,44.2,29.73,SW,226,0.9,3.0,53,0.00,,,0.02,meteobridge,2015-03-01 01:11:00,
2015-02-28 17:16:00,60.6,44.4,29.73,SW,224,2.0,4.0,55,0.00,,,0.02,meteobridge,2015-03-01 01:16:00,
2015-02-28 17:21:00,60.3,44.1,29.73,SW,224,0.0,1.0,55,0.00,,,0.02,meteobridge,2015-03-01 01:21:00,
2015-02-28 17:26:00,60.1,44.4,29.74,WSW,238,0.0,4.0,56,0.00,,,0.02,meteobridge,2015-03-01 01:26:00,
2015-02-28 17:31:00,59.4,44.1,29.74,WSW,237,2.9,3.0,57,0.00,,,0.02,meteobridge,2015-03-01 01:31:00,
2015-02-28 17:36:00,58.6,44.4,29.74,WSW,238,0.0,0.0,59,0.00,,,0.02,meteobridge,2015-03-01 01:36:00,
2015-02-28 17:41:00,58.5,44.2,29.75,WSW,238,0.0,0.0,59,0.00,,,0.02,meteobridge,2015-03-01 01:41:00,
2015-02-28 17:46:00,58.1,44.8,29.75,WSW,238,0.0,0.0,61,0.00,,,0.02,meteobridge,2015-03-01 01:46:00,
2015-02-28 17:51:00,57.9,44.6,29.75,WSW,238,0.0,0.0,61,0.00,,,0.02,meteobridge,2015-03-01 01:51:00,
2015-02-28 17:56:00,57.6,44.2,29.75,WSW,237,0.0,0.0,61,0.00,,,0.02,meteobridge,2015-03-01 01:56:00,
2015-02-28 18:01:00,57.0,45.0,29.75,WSW,238,0.0,0.0,64,0.00,,,0.02,meteobridge,2015-03-01 02:01:00,
2015-02-28 18:06:00,56.5,44.8,29.75,WSW,238,0.0,0.0,65,0.00,,,0.02,meteobridge,2015-03-01 02:06:00,
2015-02-28 18:11:00,55.9,43.9,29.76,WSW,238,0.0,1.0,64,0.00,,,0.02,meteobridge,2015-03-01 02:11:00,
2015-02-28 18:17:00,55.4,45.0,29.76,WSW,237,0.0,1.0,68,0.00,,,0.02,meteobridge,2015-03-01 02:17:00,
2015-02-28 18:22:00,54.9,44.4,29.76,WSW,238,0.0,0.0,68,0.00,,,0.02,meteobridge,2015-03-01 02:22:00,
2015-02-28 18:27:00,54.5,44.6,29.77,WSW,237,0.0,0.0,69,0.00,,,0.02,meteobridge,2015-03-01 02:27:00,
2015-02-28 18:32:00,54.1,44.6,29.77,WSW,238,0.0,1.0,70,0.00,,,0.02,meteobridge,2015-03-01 02:32:00,
2015-02-28 18:37:00,53.8,44.6,29.77,WSW,237,0.0,0.0,71,0.00,,,0.02,meteobridge,2015-03-01 02:37:00,
2015-02-28 18:42:00,53.4,44.2,29.78,WSW,238,0.0,0.0,71,0.00,,,0.02,meteobridge,2015-03-01 02:42:00,
2015-02-28 18:47:00,53.2,44.4,29.78,WSW,237,0.0,0.0,72,0.00,,,0.02,meteobridge,2015-03-01 02:47:00,
2015-02-28 18:52:00,53.1,44.2,29.78,WSW,238,0.0,0.0,72,0.00,,,0.02,meteobridge,2015-03-01 02:52:00,
2015-02-28 18:57:00,52.5,44.1,29.78,WSW,238,0.0,0.0,73,0.00,,,0.02,meteobridge,2015-03-01 02:57:00,
2015-02-28 19:02:00,52.3,44.2,29.78,WSW,238,0.0,0.0,74,0.00,,,0.02,meteobridge,2015-03-01 03:02:00,
2015-02-28 19:07:00,52.2,44.4,29.78,WSW,238,0.0,0.0,75,0.00,,,0.02,meteobridge,2015-03-01 03:07:00,
2015-02-28 19:12:00,52.0,44.2,29.79,WSW,238,0.0,0.0,75,0.00,,,0.02,meteobridge,2015-03-01 03:12:00,
2015-02-28 19:18:00,51.6,44.2,29.79,WSW,238,0.0,0.0,76,0.00,,,0.02,meteobridge,2015-03-01 03:18:00,
2015-02-28 19:23:00,51.4,44.4,29.79,WSW,237,0.0,0.0,77,0.00,,,0.02,meteobridge,2015-03-01 03:23:00,
2015-02-28 19:28:00,51.3,44.6,29.79,WSW,237,0.0,0.0,78,0.00,,,0.02,meteobridge,2015-03-01 03:28:00,
2015-02-28 19:33:00,51.1,44.8,29.79,WSW,237,0.0,0.0,79,0.00,,,0.02,meteobridge,2015-03-01 03:33:00,
2015-02-28 19:38:00,50.7,44.4,29.79,WSW,237,0.0,0.0,79,0.00,,,0.02,meteobridge,2015-03-01 03:38:00,
2015-02-28 19:43:00,50.5,44.2,29.79,WSW,238,0.0,0.0,79,0.00,,,0.02,meteobridge,2015-03-01 03:43:00,